[[{"header":{"parameterUnit":"m.s-1","parameterCategory":1,"la1":30.2991,"la2":30.254,"lo1":-89.0895,"lo2":-89.0444,"dy":0.0017,"dx":0.0017,"nx":28,"ny":28,"refTime":"2025-11-21T03:00:00:Z","depth":0,"parameterNumber":2,"parameterNumberName":"U-component_of_WINDS"},"data":[0,0,0,0,0,0,0,0,0,0,0,0,0,0,0,0,0,0,0,0,0,0,0,0,0,0,0,0,0,0,0,0,0,0,0,0,0,0,0,0,0,0,0,0,0,0,0,0,0,0,0,0,0,0,0,0,0,0,0.6924,0.6924,0,0.6953,0.6953,0.6954,0.6936,0.6936,0.6935,0.6934,0.6963,0.6965,0.6966,0,0,0,0,0,0,0,0,0,0,0,0,0,0.6853,0.6854,0.6924,0.6924,0.6925,0.6953,0.6953,0.6954,0.6936,0.6935,0.6934,0.6934,0.6963,0.6965,0.6966,0,0,0,0,0,0,0,0,0,0,0,0,0,0.6883,0.6855,0.6924,0.692,0.6919,0.6953,0.6953,0.6954,0.6937,0.6935,0.6934,0.6933,0.6962,0.6964,0.6967,0.7006,0,0,0.6974,0.6975,0,0,0,0,0,0,0,0,0.6881,0.6886,0.692,0.692,0.692,0.694,0.6939,0.6971,0.6937,0.693,0.6934,0.6932,0.6956,0.6959,0.6967,0.7007,0.7008,0.6974,0.6975,0.6976,0.6977,0,0,0,0,0,0,0,0.6879,0.6884,0.6935,0.692,0.692,0.6916,0.6919,0.6945,0.695,0.6931,0.6929,0.6933,0.6956,0.6965,0.6968,0.7009,0.6974,0.6976,0.6977,0.6978,0.7082,0.7083,0,0,0,0,0,0,0.6878,0.6883,0.6934,0.6936,0.6897,0.6918,0.6921,0.6935,0.695,0.6951,0.6934,0.6932,0.6962,0.6965,0.6969,0.7015,0.6976,0.6979,0.698,0.708,0.7082,0.7083,0,0,0,0,0,0,0.6876,0.6882,0.6933,0.6909,0.6915,0.6921,0.6936,0.6936,0.6945,0.6952,0.6953,0.6942,0.6961,0.6966,0.6997,0.7016,0.698,0.6982,0.7079,0.7081,0.7083,0.7109,0,0,0,0,0,0,0.6874,0.6882,0.6897,0.691,0.6917,0.6961,0.6937,0.6937,0.6949,0.6947,0.696,0.6961,0.696,0.6993,0.6999,0.7019,0.6984,0.7077,0.708,0.7082,0.7107,0.7112,0.7116,0,0,0,0,0,0.6872,0.6904,0.6898,0.6904,0.6936,0.6962,0.6966,0.6965,0.695,0.6966,0.697,0.6961,0.7013,0.6997,0.7003,0.7024,0.7076,0.7079,0.7082,0.7105,0.7111,0.7116,0,0,0,0,0,0,0.6894,0.6905,0.6899,0.6936,0.6948,0.6959,0.6979,0.6972,0.6988,0.6985,0.6982,0.6985,0.7018,0.7024,0.7005,0.7062,0.7042,0.7047,0.7057,0.7063,0.7068,0.7066,0.6985,0,0,0,0,0,0.6903,0.6923,0.6932,0.6964,0.697,0.6973,0.6985,0.6982,0.6995,0.7,0.7007,0.7019,0.7038,0.7051,0.7069,0.7107,0.711,0.7124,0.7129,0.7133,0.7137,0.7158,0.7164,0.7093,0.7093,0.7093,0,0,0.6922,0.6931,0.6944,0.6969,0.6978,0.6999,0.6978,0.7001,0.7017,0.7003,0.7033,0.7039,0.7052,0.7087,0.7102,0.7093,0.7157,0.7137,0.714,0.7142,0.7161,0.7168,0.7174,0.7095,0.7095,0.7095,0,0,0.6968,0.6977,0.7004,0.7013,0.7027,0.7029,0.7035,0.7047,0.705,0.708,0.707,0.7088,0.7121,0.7131,0.7141,0.7189,0.7181,0.7195,0.7221,0.724,0.7246,0.7251,0.7268,0.7275,0.7199,0.7199,0.7199,0,0.699,0.7022,0.7019,0.7043,0.7054,0.7042,0.707,0.7079,0.7098,0.7106,0.7094,0.7135,0.7143,0.718,0.7191,0.7199,0.7206,0.7194,0.7245,0.725,0.7255,0.7271,0.7278,0.72,0.72,0.72,0.72,0,0.7048,0.707,0.7091,0.711,0.7123,0.7148,0.7149,0.7162,0.7158,0.7161,0.7191,0.72,0.7219,0.7228,0.7224,0.7264,0.7257,0.7246,0.7226,0.7263,0.7279,0.7285,0.7203,0.7202,0.7202,0.7201,0,0,0.711,0.7126,0.7134,0.7142,0.7156,0.7173,0.7197,0.7216,0.7228,0.7241,0.7262,0.7289,0.7278,0.7289,0.7286,0.7303,0.7341,0.7289,0.729,0.7299,0.7385,0.7394,0.7402,0.7335,0.7336,0.7337,0.7384,0,0.7157,0.7201,0.7198,0.7239,0.7259,0.7248,0.7269,0.728,0.7283,0.73,0.7302,0.7322,0.7306,0.7313,0.7329,0.7333,0.7358,0.7329,0.7354,0.7355,0.7352,0.741,0.742,0.7464,0.739,0.7391,0.7392,0,0.7218,0.7234,0.7276,0.7287,0.7295,0.7315,0.7331,0.7348,0.7359,0.736,0.7371,0.7365,0.739,0.7368,0.7402,0.7382,0.7392,0.7395,0.7397,0.74,0.7376,0.7415,0.7477,0.7484,0.7401,0.74,0.74,0,0.7259,0.7291,0.732,0.7327,0.734,0.7354,0.736,0.737,0.7381,0.7396,0.7403,0.742,0.743,0.7443,0.7441,0.7426,0.7475,0.7454,0.7476,0.7477,0.7488,0.7488,0.7554,0.7493,0.7493,0.7493,0.7493,0,0.7313,0.734,0.7339,0.7357,0.7387,0.7383,0.7412,0.7416,0.7425,0.7444,0.7434,0.7452,0.7448,0.7466,0.7464,0.7492,0.7497,0.7498,0.7497,0.7499,0.7499,0.7506,0.7503,0.7495,0.7495,0.7494,0.7494,0,0.7364,0.7365,0.7396,0.7406,0.7409,0.743,0.7437,0.7455,0.7456,0.7479,0.7485,0.7487,0.7507,0.7506,0.7529,0.7528,0.7562,0.7558,0.7559,0.7558,0.7581,0.7579,0.7655,0.7665,0.7597,0.7598,0.7598,0,0.7399,0.7419,0.743,0.7442,0.7449,0.7468,0.7479,0.7476,0.7488,0.7502,0.7518,0.7536,0.7551,0.7584,0.7587,0.7604,0.76,0.7626,0.7603,0.7604,0.7601,0.76,0.7602,0.7631,0.7631,0.7632,0.7632,0,0.746,0.7459,0.7476,0.7493,0.7507,0.752,0.7532,0.7542,0.7539,0.7553,0.7574,0.7585,0.7608,0.7627,0.7643,0.7649,0.764,0.7639,0.7646,0.7648,0.7648,0.7649,0.7572,0.7638,0.7637,0.7637,0.7637,0.7636,0.7504,0.7521,0.7532,0.7551,0.7559,0.7571,0.7587,0.759,0.7607,0.7626,0.7622,0.7645,0.7655,0.7676,0.7683,0.77,0.7691,0.77,0.7702,0.7705,0.7707,0.7644,0.7703,0.7702,0.7702,0.7702,0.7702,0,0.7565,0.7571,0.7588,0.7605,0.762,0.761,0.7623,0.7636,0.7656,0.7666,0.7681,0.7704,0.7722,0.7726,0.7743,0.7756,0.7753,0.7761,0.776,0.7762,0.7714,0.7707,0.7763,0.7763,0.7763,0.7763,0.7763,0.7763,0.7598,0.7627,0.7627,0.766,0.7666,0.7688,0.7696,0.7706,0.7714,0.774,0.7755,0.7758,0.7765,0.7783,0.7799,0.7799,0.7806,0.7816,0.7815,0.7771,0.7765,0.7759,0.7753,0.7817,0.7818,0.7861,0.7862,0.7862]},{"header":{"parameterUnit":"m.s-1","parameterCategory":1,"la1":30.2991,"la2":30.254,"lo1":-89.0895,"lo2":-89.0444,"dy":0.0017,"dx":0.0017,"nx":28,"ny":28,"refTime":"2025-11-21T03:00:00:Z","depth":0,"parameterNumber":3,"parameterNumberName":"V-component_of_WINDS"},"data":[0,0,0,0,0,0,0,0,0,0,0,0,0,0,0,0,0,0,0,0,0,0,0,0,0,0,0,0,0,0,0,0,0,0,0,0,0,0,0,0,0,0,0,0,0,0,0,0,0,0,0,0,0,0,0,0,0,0,3.4332,3.4333,0,3.4387,3.4388,3.4388,3.4384,3.4384,3.4383,3.4382,3.4437,3.444,3.4442,0,0,0,0,0,0,0,0,0,0,0,0,0,3.4222,3.4224,3.4332,3.4333,3.4334,3.4387,3.4388,3.4389,3.4385,3.4384,3.4383,3.4382,3.4437,3.4439,3.4442,0,0,0,0,0,0,0,0,0,0,0,0,0,3.4273,3.4225,3.4332,3.4338,3.4339,3.4387,3.4388,3.4389,3.4385,3.4384,3.4382,3.4381,3.4436,3.4439,3.4442,3.4487,0,0,3.4453,3.4454,0,0,0,0,0,0,0,0,3.427,3.4277,3.4337,3.4338,3.4339,3.4378,3.4369,3.4422,3.4385,3.4367,3.4382,3.4381,3.4418,3.4423,3.4436,3.449,3.4492,3.4453,3.4455,3.4456,3.4457,0,0,0,0,0,0,0,3.4267,3.4275,3.4354,3.4337,3.4339,3.4337,3.4343,3.4379,3.4399,3.4369,3.4369,3.4375,3.4419,3.4433,3.4437,3.4493,3.4453,3.4456,3.4458,3.4459,3.4587,3.4588,0,0,0,0,0,0,3.4262,3.4272,3.4352,3.4356,3.4301,3.434,3.4347,3.4367,3.4399,3.4402,3.4376,3.4375,3.4428,3.4433,3.4439,3.4495,3.4456,3.4459,3.4461,3.4585,3.4587,3.4589,0,0,0,0,0,0,3.426,3.4269,3.435,3.4314,3.4324,3.4344,3.4366,3.4368,3.4382,3.4404,3.4408,3.4387,3.4427,3.4435,3.4476,3.4497,3.4461,3.4464,3.4584,3.4586,3.4588,3.4606,0,0,0,0,0,0,3.4256,3.4268,3.4286,3.4314,3.4326,3.4386,3.4367,3.437,3.4388,3.4387,3.4415,3.4419,3.4427,3.4471,3.4479,3.45,3.4467,3.4582,3.4585,3.4587,3.4603,3.4608,3.4612,0,0,0,0,0,3.4252,3.4289,3.4287,3.4297,3.4349,3.4387,3.4394,3.4402,3.439,3.4408,3.4422,3.4418,3.4493,3.4475,3.4484,3.4507,3.4581,3.4584,3.4587,3.4601,3.4607,3.4612,0,0,0,0,0,0,3.4263,3.4293,3.4291,3.4338,3.436,3.4386,3.4409,3.4408,3.4434,3.4432,3.4441,3.4447,3.4489,3.4502,3.4481,3.4552,3.4535,3.454,3.4543,3.4548,3.4553,3.4549,3.4469,0,0,0,0,0,3.427,3.43,3.4324,3.4362,3.4374,3.4389,3.4407,3.4411,3.4434,3.4444,3.4461,3.4483,3.4512,3.4531,3.4558,3.4604,3.4611,3.4625,3.4629,3.4633,3.4637,3.4663,3.467,3.4599,3.4599,3.4599,0,0,3.4286,3.4306,3.4324,3.4365,3.4383,3.4413,3.4398,3.443,3.4452,3.4449,3.4489,3.4502,3.4527,3.4571,3.4592,3.4584,3.4658,3.4637,3.4639,3.4642,3.4667,3.4674,3.468,3.4601,3.4601,3.46,0,0,3.4331,3.4349,3.4384,3.4402,3.4429,3.4439,3.4447,3.4474,3.4482,3.4523,3.4521,3.4547,3.4596,3.4614,3.463,3.4681,3.4678,3.4689,3.4713,3.4738,3.4743,3.4748,3.4767,3.4774,3.4693,3.4693,3.4694,0,3.4348,3.4393,3.4401,3.4434,3.4452,3.445,3.4484,3.4501,3.4536,3.4548,3.4538,3.46,3.4617,3.4665,3.4678,3.469,3.47,3.4687,3.4742,3.4747,3.4752,3.477,3.4777,3.4695,3.4695,3.4694,3.4694,0,3.4413,3.4444,3.4468,3.4502,3.4522,3.4556,3.4568,3.4588,3.459,3.4601,3.4642,3.4662,3.4693,3.4705,3.4707,3.4754,3.4748,3.474,3.4723,3.476,3.4777,3.4784,3.4696,3.4696,3.4696,3.4695,0,0,3.4467,3.4504,3.4513,3.4528,3.4558,3.4582,3.4614,3.4645,3.4662,3.4686,3.4714,3.4754,3.4747,3.4765,3.4769,3.4791,3.4831,3.478,3.4781,3.479,3.4883,3.489,3.4898,3.4829,3.483,3.4831,3.4882,0,3.4516,3.4575,3.4582,3.4634,3.4663,3.4661,3.469,3.4711,3.4721,3.4747,3.4759,3.4788,3.4776,3.4787,3.4808,3.4821,3.485,3.4818,3.4855,3.4856,3.485,3.4907,3.4914,3.4961,3.4888,3.4889,3.489,0,3.4581,3.4606,3.4662,3.4687,3.4699,3.4725,3.4754,3.4778,3.4801,3.4807,3.4827,3.4828,3.4862,3.4843,3.4889,3.4867,3.4882,3.4891,3.4893,3.4898,3.4876,3.4914,3.4976,3.4984,3.4901,3.49,3.4899,0,3.4616,3.4664,3.4703,3.4716,3.4746,3.4764,3.4778,3.48,3.4818,3.4842,3.4854,3.4882,3.4898,3.492,3.4929,3.4914,3.4975,3.4956,3.4981,3.4981,3.4995,3.4995,3.5062,3.5003,3.5003,3.5003,3.5003,0,3.467,3.4704,3.472,3.4744,3.4782,3.4789,3.4826,3.4839,3.4858,3.4884,3.4884,3.4909,3.4918,3.4944,3.4951,3.4989,3.4996,3.5002,3.5004,3.5003,3.5002,3.5014,3.5011,3.5005,3.5005,3.5004,3.5004,0,3.4717,3.4728,3.4771,3.4796,3.4803,3.483,3.485,3.4874,3.4883,3.4917,3.4925,3.4941,3.4971,3.4982,3.5019,3.5024,3.5068,3.5066,3.506,3.5061,3.5086,3.5084,3.5164,3.5175,3.5108,3.5109,3.5109,0,3.4752,3.4778,3.4805,3.4823,3.4837,3.4865,3.4884,3.4891,3.491,3.4938,3.4958,3.4989,3.5014,3.5063,3.5077,3.5106,3.5105,3.5131,3.511,3.5108,3.5107,3.5106,3.5108,3.5136,3.5136,3.5137,3.5137,0,3.4812,3.4816,3.4843,3.4872,3.4893,3.4916,3.4938,3.4953,3.4963,3.4985,3.5016,3.5036,3.5073,3.5104,3.5132,3.5146,3.5144,3.5144,3.5152,3.5152,3.5148,3.5151,3.5072,3.5142,3.5142,3.5142,3.5141,3.5141,3.4854,3.4878,3.4901,3.493,3.4947,3.4968,3.4991,3.5003,3.503,3.5061,3.5064,3.5098,3.512,3.5158,3.5173,3.5199,3.5192,3.5203,3.5206,3.5208,3.5211,3.5142,3.5204,3.5204,3.5204,3.5204,3.5204,0,3.4916,3.493,3.4957,3.4988,3.5011,3.5006,3.503,3.505,3.508,3.5101,3.5125,3.5161,3.519,3.5206,3.5235,3.5254,3.5253,3.5261,3.5261,3.5264,3.5215,3.5206,3.5261,3.5261,3.5261,3.5261,3.5261,3.5261,3.4951,3.499,3.4996,3.5044,3.5058,3.5091,3.5105,3.5124,3.514,3.518,3.5205,3.5215,3.5234,3.5264,3.5291,3.5295,3.5306,3.5315,3.5318,3.5273,3.5267,3.5262,3.5253,3.5317,3.5317,3.5364,3.5365,3.5365]}]]